Regional Weather Roundup
Issued by NWS

Home | Current Version | Previous Version | Text Only | Print | Product List | Glossary On
Versions: 1 2 3 4 5 6 7 8 9 10 11 12 13 14 15 16 17 18 19 20 21 22 23 24 25 26 27
000
ASUS42 KKEY 201710
RWRKEY

FLORIDA REGIONAL WEATHER ROUNDUP FOR THE FLORIDA KEYS
NATIONAL WEATHER SERVICE KEY WEST FLORIDA
100 PM EDT WED SEP 20 2017

...SOUTH FLORIDA AND THE KEYS...

CITY           SKY/WX    TMP DP  RH WIND       PRES   REMARKS
FORT MYERS     MOSUNNY   90  73  57 S3        29.97F HX  98
SW REGIONAL AP MOSUNNY   89  71  55 SE3       29.98F HX  95
NAPLES         SUNNY     87  75  67 SW12      29.98S HX  96
MIAMI          MOSUNNY   89  74  60 SE7       29.98S HX  98
WEST KENDALL   MOSUNNY   89  74  60 E7        29.98F HX  98
HOMESTEAD      MOSUNNY   88  77  70 E6        29.98S HX 100
MARATHON       SUNNY     89  71  55 SE7       29.98F HX  95
BOCA CHICA NAS SUNNY     93  76  57 MISG      29.99F HX 105
KEY WEST INTL  SUNNY     86  72  62 VRB5      29.99F HX  92

...INTERNATIONAL WEATHER...

CITY           SKY/WX    TMP DP  RH WIND       PRES   REMARKS
NASSAU BAHAMAS MOSUNNY   90  77  66 W7        29.98F HX 102
CANCUN MEXICO  PTSUNNY   88  75  66 E9        29.96F HX  97
COZUMEL MEXICO MOSUNNY   88  77  70 SE8       29.94S HX 100

ADJACENT COASTAL WATERS...

STATION/POSITION TIME  SKY/WX   TEMP    WIND        PRES    WAVE
                                AIR SEA DIR/SP/G            HT/PER
                 (UTC)          (F)     (DEG/KT/KT) (MB)    (FT/S)
PULASKI SHOAL LI 1700            84     160/  3/  4 1015.6F
SAND KEY         1650            83                 1016.2F
LONG KEY         NOT AVBL
MOLASSES REEF    1600            83 85  160/  3/  4 1016.0
FOWEY ROCKS      1600            83 85  130/  6/  7 1016.4F
Buoy 42097       1700               85                N/A     2/ 5

$$




USA.gov is the U.S. government's official web portal to all federal, state and local government web resources and services.